User: anonymous   Login
Location: Unspecified
(0.0000°N, 0.0000°E)
Time: 20:17:18
(UTC+00:00)
Language:

NOAA 17 - Orbit

View from above orbital plane
View from above orbital plane
View from above satellite
View from above satellite

Ground track
Ground track

The orbit data is extracted from the following two-line orbital elements,

1 27453U 02032A   15025.52809804  .00000078  00000-0  50994-4 0  8969
2 27453 098.3288 018.6826 0010841 237.8145 122.1985 14.24845488654344
Epoch (UTC): 25 January 2015 12:40:27
Eccentricity: 0.0010841
inclination: 98.3288°
perigee height: 801 km
apogee height: 817 km
right ascension of ascending node: 18.6826°
argument of perigee: 237.8145°
revolutions per day: 14.24845488
mean anomaly at epoch: 122.1985°
orbit number at epoch: 65434

The dashed part of the orbit path shows where the satellite is in the earth's shadow,  

DLR